Location: Santaluz Observatory
(32.9930°N, 117.1510°W)
Time: 19:05:27
(UTC-07:00)

Hubble Space Telescope - Visible Passes

Search period start: 23 March 2017 00:00
Search period end: 02 April 2017 00:00
Orbit: 538 x 542 km, 28.5° (Epoch: 22 March)

Date Brightness Start Highest point End Pass type
(mag) Time Alt. Az. Time Alt. Az. Time Alt. Az.
23 Mar 2.9 06:04:38 10° SSW 06:07:34 19° SSE 06:10:30 10° ESE visible
24 Mar 2.6 05:54:14 10° SW 05:57:29 22° SSE 06:00:44 10° ESE visible
25 Mar 2.3 05:44:36 13° SW 05:47:24 26° SSE 05:50:54 10° ESE visible
26 Mar 2.1 05:35:11 19° SW 05:37:21 30° SSE 05:41:00 10° ESE visible
27 Mar 1.8 05:25:44 25° SSW 05:27:18 34° S 05:31:04 10° ESE visible
28 Mar 1.6 05:16:14 32° SSW 05:17:15 38° S 05:21:06 10° ESE visible
29 Mar 1.4 05:06:44 39° SSW 05:07:13 41° S 05:11:07 10° ESE visible
30 Mar 1.3 04:57:14 43° S 04:57:14 43° S 05:01:07 10° ESE visible
31 Mar 1.5 04:47:45 41° SSE 04:47:45 41° SSE 04:51:06 10° ESE visible
01 Apr 1.9 04:38:18 34° SE 04:38:18 34° SE 04:41:04 10° ESE visible
